Flag for China Weather past 2 weeks in Taiyuan, Shanxi, China

Now
72 °F

Passing clouds.


Feels Like: 74 °F
Forecast: 43 / 75 °F
Wind: 3 mph from West

Location: Taiyuan Airport

Current Time: Mar 29, 2015 at 5:30:07 PM

Latest Report: Mar 29, 2015 at 5:00 PM


Visibility: N/A

Pressure: 29.80 "Hg

Humidity: 16%

Dew point: 23 °F

Location of TaiyuanLocation

Historic Weather in Taiyuan — Graph

°F

Taiyuan temperature yesterday

Maximum temperature yesterday: 70 °F (at 3:30 PM)
Minimum temperature yesterday: 37 °F (at 6:00 AM)
Average temperature yesterday: 54 °F

Past Weeks' High & Low Weather Summary

 TemperatureHumidityPressure
High72 °F (Mar 16, 2:30 PM)81% (Mar 26, 2:00 AM)30.45 "Hg (Mar 26, 2:00 AM)
Low28 °F (Mar 23, 6:30 AM)5% (Mar 23, 3:00 PM)29.77 "Hg (Mar 16, 3:30 PM)
Average51 °F31%30.13 "Hg
* Reported Mar 14 4:00 PM — Mar 29 4:30 PM, Taiyuan, Weather by CustomWeather, © 2015

Note: Actual official high and low records may vary slightly from our data, if they occured in-between our weather recording intervals... More about our weather records

Advertising

Taiyuan weather history for previous 24 hours

 ConditionsComfort  
Time TempWeatherWind HumidityBarometerVisibility
4:30 PM
Sun, Mar 29
72 °FPassing clouds.6 mph15%29.80 "HgN/A
4:00 PM72 °FPassing clouds.6 mph15%29.80 "HgN/A
3:30 PM72 °FPassing clouds.6 mph16%29.80 "HgN/A
3:00 PM72 °FPassing clouds.8 mph15%29.83 "HgN/A
2:30 PM72 °FSunny.3 mph14%29.83 "Hg10 mi
2:00 PM72 °FSunny.3 mph14%29.86 "Hg10 mi
1:30 PM70 °FPassing clouds.6 mph15%29.89 "HgN/A
1:00 PM70 °FPassing clouds.8 mph15%29.92 "HgN/A
12:30 PM68 °FPassing clouds.6 mph14%29.92 "HgN/A
12:00 PM68 °FPassing clouds.6 mph14%29.95 "HgN/A
11:30 AM66 °FPassing clouds.6 mph17%29.98 "HgN/A
11:00 AM64 °FPassing clouds.6 mph18%29.98 "HgN/A
10:30 AM63 °FPassing clouds.3 mph19%30.01 "HgN/A
10:00 AM61 °FSunny.3 mph19%30.01 "Hg10 mi
9:30 AM59 °FSunny.1 mph17%30.01 "Hg10 mi
9:00 AM54 °FSunny.3 mph19%30.04 "Hg10 mi
8:30 AM52 °FSunny.3 mph20%30.04 "Hg10 mi
8:00 AM50 °FSunny.1 mph22%30.01 "Hg10 mi
7:30 AM45 °FSunny.1 mph34%30.01 "Hg10 mi
7:00 AM41 °FSunny.1 mph36%30.01 "Hg10 mi
6:30 AM39 °FSunny.1 mph36%30.01 "Hg10 mi
6:00 AM41 °FClear.1 mph31%30.01 "Hg10 mi
5:30 AM41 °FClear.3 mph33%30.01 "Hg10 mi
4:30 AM43 °FClear.3 mph26%30.01 "Hg10 mi
4:00 AM41 °FClear.3 mph31%30.01 "Hg10 mi
3:30 AM45 °FClear.1 mph25%30.01 "Hg10 mi
3:00 AM45 °FClear.6 mph31%30.01 "Hg10 mi
2:30 AM45 °FClear.1 mph29%30.04 "Hg10 mi
2:00 AM46 °FClear.1 mph27%30.04 "Hg10 mi
1:30 AM50 °FClear.3 mph24%30.04 "Hg10 mi
1:00 AM52 °FClear.3 mph24%30.04 "Hg10 mi
12:30 AM48 °FClear.3 mph27%30.04 "Hg10 mi
12:00 AM52 °FClear.3 mph24%30.04 "Hg10 mi
11:30 PM
Sat, Mar 28
52 °FClear.3 mph24%30.04 "Hg10 mi
11:00 PM52 °FClear.No wind22%30.04 "Hg10 mi
10:30 PM52 °FClear.6 mph24%30.04 "Hg10 mi
10:00 PM54 °FClear.3 mph21%30.04 "Hg10 mi
9:30 PM55 °FPassing clouds.6 mph19%30.04 "HgN/A
9:00 PM57 °FPassing clouds.6 mph18%30.04 "HgN/A
8:30 PM57 °FPassing clouds.3 mph18%30.01 "HgN/A
8:00 PM59 °FPassing clouds.3 mph18%30.01 "HgN/A
7:30 PM59 °FClear.No wind20%30.01 "Hg10 mi
7:00 PM59 °FClear.1 mph17%29.98 "Hg10 mi
6:30 PM63 °FSunny.1 mph13%30.01 "Hg10 mi
6:00 PM64 °FSunny.1 mph13%30.01 "Hg10 mi
5:30 PM66 °FSunny.1 mph11%29.98 "Hg10 mi
5:00 PM66 °FSunny.1 mph12%30.01 "Hg10 mi
Weather by CustomWeather, © 2015

See weather overviewHow to use our weather pages